This is the latest recevied weather packets stored in our database for station/object W0PE-1. If no packets are shown the sender has not sent any weather packets the latest 10 day(s).
| Time | Temp. | Humidity | Pressure | Rain* | Wind** | Luminosity | Snow |
|---|---|---|---|---|---|---|---|
| 1778058046 | 12.22° C | 85% | 1017.1 hPa | 0 mm | - | - | - |
| 1778057145 | 12.22° C | 85% | 1017.1 hPa | 0 mm | - | - | - |
| 1778056242 | 12.22° C | 84% | 1017.3 hPa | 0 mm | - | - | - |
| 1778055340 | 12.22° C | 84% | 1017.3 hPa | 0 mm | - | - | - |
| 1778054439 | 12.78° C | 83% | 1017.3 hPa | 0 mm | - | - | - |
| 1778053537 | 12.78° C | 83% | 1017.3 hPa | 0 mm | - | - | - |
| 1778052637 | 12.78° C | 82% | 1017.2 hPa | 0 mm | - | - | - |
| 1778051733 | 13.33° C | 81% | 1017.2 hPa | 0 mm | - | - | - |
| 1778050833 | 13.33° C | 81% | 1017.2 hPa | 0 mm | - | - | - |
| 1778049930 | 13.33° C | 80% | 1017.1 hPa | 0 mm | - | - | - |
| 1778049028 | 13.89° C | 79% | 1017 hPa | 0 mm | - | - | - |
| 1778048127 | 13.89° C | 78% | 1016.9 hPa | 0 mm | - | - | - |
| 1778047226 | 13.89° C | 77% | 1016.8 hPa | 0 mm | - | - | - |
| 1778046325 | 14.44° C | 76% | 1016.8 hPa | 0 mm | - | - | - |
| 1778045424 | 14.44° C | 75% | 1016.7 hPa | 0 mm | - | - | - |
| 1778044522 | 15° C | 74% | 1016.5 hPa | 0 mm | - | - | - |
| 1778043620 | 15° C | 73% | 1016.3 hPa | 0 mm | - | - | - |
| 1778042720 | 15.56° C | 71% | 1016.1 hPa | 0 mm | - | - | - |
| 1778041817 | 15.56° C | 70% | 1015.8 hPa | 0 mm | - | - | - |
| 1778040916 | 15.56° C | 69% | 1015.7 hPa | 0 mm | - | - | - |
| 1778040023 | 16.11° C | 68% | 1015.5 hPa | 0 mm | - | - | - |
| 1778039111 | 16.11° C | 67% | 1015.1 hPa | 0 mm | - | - | - |
| 1778038210 | 16.11° C | 66% | 1014.9 hPa | 0 mm | - | - | - |
| 1778037308 | 16.67° C | 65% | 1014.8 hPa | 0 mm | - | - | - |
| 1778036407 | 17.22° C | 62% | 1014.6 hPa | 0 mm | - | - | - |
* Rain latest hour (hover to see other rain measurements)
** Current wind speed in m/s (hover to see current wind gust speed)